Regional Weather Roundup
Issued by NWS Kansas City/Pleasant Hill, MO

Home | Current Version | Previous Version | Graphics & Text | Print | Product List | Glossary Off
Versions: 1 2 3 4 5 6 7 8 9 10 11 12 13 14 15 16 17 18 19 20 21 22 23 24 25 26 27 28

000
ASUS43 KEAX 272010
RWREAX

WEATHER ROUNDUP FOR EASTERN KANSAS AND NORTHWEST MISSOURI
NATIONAL WEATHER SERVICE KANSAS CITY/PLEASANT HILL MO
300 PM CDT THU APR 27 2017

KSZ040-057-103>105-MOZ028-029-037-043-272100-
...KANSAS CITY METROPOLITAN AREA...

CITY           SKY/WX    TMP DP  RH WIND       PRES   REMARKS
K.C. INTL      PTSUNNY   61  37  41 VRB7      29.72S
K.C. DOWNTOWN  SUNNY     61  38  42 CALM      29.72S
LEES SUMMIT    SUNNY     60  39  45 CALM      29.73F
OLATHE - IXD   PTSUNNY   60  38  43 SW5       29.74R
OLATHE - OJC   MOSUNNY   59  41  51 MISG      29.74R
LAWRENCE       CLOUDY    60  38  43 S7        29.74R

$$

MOZ001>008-011>017-020>025-030>033-038>040-044>046-053-054-272100-
...NORTHERN AND CENTRAL MISSOURI...

CITY           SKY/WX    TMP DP  RH WIND       PRES   REMARKS
ST. JOSEPH     CLOUDY    62  38  40 W6        29.72S
MOSBY          CLEAR     59  34  38 SW7       29.72F
WHITEMAN AFB   MOSUNNY   58  43  56 S9        29.73F
CLINTON        SUNNY     59  45  58 S8        29.76F
SEDALIA        SUNNY     60  47  61 SE8       29.75F
WARSAW         NOT AVBL
CHILLICOTHE      N/A     60  40  47 VRB5      29.72F
KIRKSVILLE     PTSUNNY   55  41  59 SW12G18   29.73F

$$

MOZ041-047>049-056>058-063>065-088>090-097-272100-
...EASTERN AND SOUTHERN MISSOURI...

CITY           SKY/WX    TMP DP  RH WIND       PRES   REMARKS
ST. LOUIS INTL MOSUNNY   58  41  53 SW12      29.79S
SPIRIT OF STL  MOSUNNY   57  43  59 W12G20    29.78S
COLUMBIA       MOSUNNY   57  42  57 S8        29.76F
JEFFERSON CITY SUNNY     59  41  51 SW9       29.77F
ROLLA          SUNNY     57  42  57 VRB5      29.76F
OSAGE BEACH    SUNNY     59  41  51 CALM      29.77F
SPRINGFIELD    SUNNY     62  43  49 SW7       29.76F
BRANSON        PTSUNNY   63  39  42 W6        29.79S
JOPLIN         SUNNY     64  42  44 S6        29.75F
WEST PLAINS    SUNNY     63  43  48 VRB3      29.79F

$$

IAZ060-094-KSZ022-034>040-054-083-096-NEZ052-066-093-272100-
...KANSAS...SOUTHEAST NEBRASKA AND IOWA...

CITY           SKY/WX    TMP DP  RH WIND       PRES   REMARKS
TOPEKA         PTSUNNY   60  36  40 NW5       29.72R
MANHATTAN      CLOUDY    60  35  39 CALM      29.71F
EMPORIA        CLOUDY    60  41  49 S10       29.72S
CHANUTE        CLOUDY    61  44  53 S9        29.75R
WICHITA        CLOUDY    60  42  51 S17       29.68S
OMAHA          MOSUNNY   53  35  50 VRB5      29.72S
LINCOLN        MOSUNNY   58  32  37 W9        29.72S
FALLS CITY     MOSUNNY   58  37  45 W9        29.70F
LAMONI         MOSUNNY   55  39  54 SW12      29.70F
DES MOINES     PTSUNNY   52  33  48 W9        29.70S

$$





USA.gov is the U.S. government's official web portal to all federal, state and local government web resources and services.